Time,TemperatureF,DewpointF,PressureIn,WindDirection,WindDirectionDegrees,WindSpeedMPH,WindSpeedGustMPH,Humidity,HourlyPrecipIn,Conditions,Clouds,dailyrainin,SoftwareType,DateUTC
2013-01-10 00:02:00,65.0,61.0,30.24,East,91,5.0,9.0,88,0.00,,,0.00,,2013-01-10 06:02:00,
2013-01-10 00:12:00,65.0,61.0,30.24,East,91,5.0,9.0,88,0.00,,,0.00,,2013-01-10 06:12:00,
2013-01-10 00:22:00,65.0,61.0,30.24,East,80,5.0,9.0,88,0.00,,,0.00,,2013-01-10 06:22:00,
2013-01-10 00:32:00,65.0,61.0,30.24,ENE,60,6.0,10.0,88,0.00,,,0.00,,2013-01-10 06:32:00,
2013-01-10 00:42:00,65.0,61.0,30.24,ENE,60,6.0,10.0,88,0.00,,,0.00,,2013-01-10 06:42:00,
2013-01-10 00:52:00,65.0,61.0,30.24,East,90,6.0,8.0,88,0.00,,,0.00,,2013-01-10 06:52:00,
2013-01-10 01:02:00,65.0,61.0,30.24,East,87,5.0,9.0,88,0.00,,,0.00,,2013-01-10 07:02:00,
2013-01-10 01:12:00,65.0,61.0,30.24,East,87,5.0,9.0,88,0.00,,,0.00,,2013-01-10 07:12:00,
2013-01-10 01:22:00,65.0,61.0,30.24,East,92,6.0,10.0,88,0.00,,,0.00,,2013-01-10 07:22:00,
2013-01-10 01:32:00,65.0,61.0,30.24,East,87,6.0,11.0,88,0.00,,,0.00,,2013-01-10 07:32:00,
2013-01-10 01:42:00,65.0,61.0,30.24,East,87,6.0,11.0,88,0.00,,,0.00,,2013-01-10 07:42:00,
2013-01-10 01:52:00,65.0,61.0,30.23,ENE,61,6.0,12.0,88,0.00,,,0.00,,2013-01-10 07:52:00,
2013-01-10 02:02:00,64.0,60.0,30.23,ENE,63,7.0,11.0,88,0.00,,,0.00,,2013-01-10 08:02:00,
2013-01-10 02:12:00,64.0,60.0,30.23,ENE,63,7.0,11.0,88,0.00,,,0.00,,2013-01-10 08:12:00,
2013-01-10 02:22:00,64.0,60.0,30.23,East,86,6.0,10.0,88,0.00,,,0.00,,2013-01-10 08:22:00,
2013-01-10 02:32:00,64.0,60.0,30.23,ENE,71,7.0,11.0,88,0.00,,,0.00,,2013-01-10 08:32:00,
2013-01-10 02:42:00,64.0,60.0,30.23,ENE,71,7.0,11.0,88,0.00,,,0.00,,2013-01-10 08:42:00,
2013-01-10 02:53:00,64.0,60.0,30.22,ENE,61,6.0,11.0,88,0.00,,,0.00,,2013-01-10 08:53:00,
2013-01-10 03:02:00,64.0,60.0,30.22,ENE,74,8.0,14.0,88,0.00,,,0.00,,2013-01-10 09:02:00,
2013-01-10 03:12:00,64.0,60.0,30.22,ENE,74,8.0,14.0,88,0.00,,,0.00,,2013-01-10 09:12:00,
2013-01-10 03:22:00,64.0,60.0,30.22,ENE,69,8.0,13.0,88,0.00,,,0.00,,2013-01-10 09:22:00,
2013-01-10 03:32:00,64.0,60.0,30.22,ENE,69,8.0,13.0,88,0.00,,,0.00,,2013-01-10 09:32:00,
2013-01-10 03:42:00,64.0,60.0,30.22,ENE,69,8.0,13.0,88,0.00,,,0.00,,2013-01-10 09:42:00,
2013-01-10 03:52:00,65.0,61.0,30.21,ENE,76,8.0,13.0,88,0.00,,,0.00,,2013-01-10 09:52:00,
2013-01-10 04:03:00,64.0,60.0,30.21,East,86,9.0,16.0,88,0.00,,,0.00,,2013-01-10 10:03:00,
2013-01-10 04:12:00,64.0,60.0,30.21,East,86,9.0,16.0,88,0.00,,,0.00,,2013-01-10 10:12:00,
2013-01-10 04:22:00,64.0,60.0,30.20,East,95,7.0,13.0,88,0.00,,,0.00,,2013-01-10 10:22:00,
2013-01-10 04:32:00,64.0,60.0,30.19,East,85,6.0,13.0,88,0.00,,,0.00,,2013-01-10 10:32:00,
2013-01-10 04:42:00,64.0,60.0,30.19,East,85,6.0,13.0,88,0.00,,,0.00,,2013-01-10 10:42:00,
2013-01-10 04:52:00,65.0,61.0,30.19,East,82,6.0,10.0,88,0.00,,,0.00,,2013-01-10 10:52:00,
2013-01-10 05:02:00,65.0,61.0,30.19,ENE,71,6.0,11.0,88,0.00,,,0.00,,2013-01-10 11:02:00,
2013-01-10 05:12:00,65.0,61.0,30.19,ENE,71,6.0,11.0,88,0.00,,,0.00,,2013-01-10 11:12:00,
2013-01-10 05:22:00,65.0,61.0,30.19,East,85,7.0,11.0,88,0.00,,,0.00,,2013-01-10 11:22:00,
2013-01-10 05:32:00,65.0,61.0,30.19,ENE,68,6.0,12.0,88,0.00,,,0.00,,2013-01-10 11:32:00,
2013-01-10 05:42:00,65.0,61.0,30.19,ENE,68,6.0,12.0,88,0.00,,,0.00,,2013-01-10 11:42:00,
2013-01-10 05:53:00,66.0,62.0,30.19,ENE,71,9.0,17.0,88,0.00,,,0.00,,2013-01-10 11:53:00,
2013-01-10 06:02:00,66.0,62.0,30.19,East,96,10.0,18.0,88,0.00,,,0.00,,2013-01-10 12:02:00,
2013-01-10 06:12:00,66.0,62.0,30.19,East,96,10.0,18.0,88,0.00,,,0.00,,2013-01-10 12:12:00,
2013-01-10 06:22:00,66.0,62.0,30.19,East,98,10.0,15.0,88,0.00,,,0.00,,2013-01-10 12:22:00,
2013-01-10 06:32:00,64.0,60.0,30.19,ESE,109,11.0,15.0,87,0.00,,,0.00,,2013-01-10 12:32:00,
2013-01-10 06:42:00,64.0,60.0,30.19,ESE,109,11.0,15.0,87,0.00,,,0.00,,2013-01-10 12:42:00,
2013-01-10 06:53:00,64.0,60.0,30.18,ESE,119,15.0,18.0,88,0.00,,,0.00,,2013-01-10 12:53:00,
2013-01-10 07:02:00,64.0,60.0,30.18,ESE,114,17.0,23.0,88,0.00,,,0.00,,2013-01-10 13:02:00,
2013-01-10 07:12:00,64.0,60.0,30.18,ESE,114,17.0,23.0,88,0.00,,,0.00,,2013-01-10 13:12:00,
2013-01-10 07:22:00,64.0,60.0,30.18,ESE,115,18.0,23.0,88,0.00,,,0.00,,2013-01-10 13:22:00,
2013-01-10 07:32:00,63.0,59.0,30.19,ESE,110,16.0,25.0,88,0.00,,,0.00,,2013-01-10 13:32:00,
2013-01-10 07:42:00,63.0,59.0,30.19,ESE,110,16.0,25.0,88,0.00,,,0.00,,2013-01-10 13:42:00,
2013-01-10 07:53:00,63.0,59.0,30.19,ESE,118,16.0,22.0,88,0.00,,,0.00,,2013-01-10 13:53:00,
2013-01-10 08:02:00,63.0,59.0,30.20,ESE,119,15.0,21.0,88,0.00,,,0.00,,2013-01-10 14:02:00,
2013-01-10 08:12:00,63.0,59.0,30.20,ESE,119,15.0,21.0,88,0.00,,,0.00,,2013-01-10 14:12:00,
2013-01-10 08:22:00,63.0,59.0,30.21,ESE,117,15.0,21.0,88,0.00,,,0.00,,2013-01-10 14:22:00,
2013-01-10 08:32:00,63.0,59.0,30.21,ESE,117,15.0,21.0,88,0.00,,,0.00,,2013-01-10 14:32:00,
2013-01-10 08:43:00,63.0,59.0,30.21,ESE,117,15.0,21.0,88,0.00,,,0.00,,2013-01-10 14:43:00,
2013-01-10 08:53:00,62.0,58.0,30.22,ESE,111,14.0,19.0,88,0.00,,,0.00,,2013-01-10 14:53:00,
2013-01-10 09:03:00,62.0,58.0,30.23,ESE,110,13.0,17.0,88,0.00,,,0.00,,2013-01-10 15:03:00,
2013-01-10 09:12:00,62.0,58.0,30.23,ESE,110,13.0,17.0,88,0.00,,,0.00,,2013-01-10 15:12:00,
2013-01-10 09:22:00,62.0,59.0,30.24,ESE,105,11.0,14.0,89,0.00,,,0.00,,2013-01-10 15:22:00,
2013-01-10 09:33:00,62.0,59.0,30.24,ESE,109,11.0,13.0,89,0.00,,,0.00,,2013-01-10 15:33:00,
2013-01-10 09:43:00,62.0,59.0,30.24,ESE,109,11.0,13.0,89,0.00,,,0.00,,2013-01-10 15:43:00,
2013-01-10 09:53:00,62.0,59.0,30.25,ESE,113,9.0,14.0,89,0.00,,,0.00,,2013-01-10 15:53:00,
2013-01-10 10:02:00,62.0,59.0,30.24,ESE,111,11.0,13.0,89,0.00,,,0.00,,2013-01-10 16:02:00,
2013-01-10 10:13:00,62.0,59.0,30.24,ESE,111,11.0,13.0,89,0.00,,,0.00,,2013-01-10 16:13:00,
2013-01-10 10:23:00,62.0,59.0,30.24,ESE,115,13.0,17.0,89,0.00,,,0.00,,2013-01-10 16:23:00,
2013-01-10 10:33:00,62.0,59.0,30.24,ESE,119,10.0,13.0,89,0.00,,,0.00,,2013-01-10 16:33:00,
2013-01-10 10:43:00,62.0,59.0,30.24,ESE,119,10.0,13.0,89,0.00,,,0.00,,2013-01-10 16:43:00,
2013-01-10 10:53:00,61.0,58.0,30.25,ESE,119,8.0,11.0,89,0.00,,,0.00,,2013-01-10 16:53:00,
2013-01-10 11:03:00,61.0,58.0,30.24,ESE,113,6.0,8.0,89,0.00,,,0.00,,2013-01-10 17:03:00,
2013-01-10 11:12:00,61.0,58.0,30.24,ESE,113,6.0,8.0,89,0.00,,,0.00,,2013-01-10 17:12:00,
2013-01-10 11:22:00,61.0,58.0,30.24,ESE,113,7.0,9.0,89,0.00,,,0.00,,2013-01-10 17:22:00,
2013-01-10 11:33:00,61.0,58.0,30.22,ESE,109,8.0,10.0,89,0.00,,,0.00,,2013-01-10 17:33:00,
2013-01-10 11:42:00,61.0,58.0,30.22,ESE,109,8.0,10.0,89,0.00,,,0.00,,2013-01-10 17:42:00,
2013-01-10 11:53:00,62.0,59.0,30.22,ESE,112,10.0,12.0,89,0.00,,,0.00,,2013-01-10 17:53:00,
2013-01-10 12:03:00,62.0,59.0,30.21,ESE,110,12.0,14.0,89,0.00,,,0.00,,2013-01-10 18:03:00,
2013-01-10 12:12:00,63.0,60.0,30.21,ESE,119,10.0,13.0,89,0.00,,,0.00,,2013-01-10 18:12:00,
2013-01-10 12:23:00,63.0,60.0,30.21,ESE,119,10.0,13.0,89,0.00,,,0.00,,2013-01-10 18:23:00,
2013-01-10 12:33:00,63.0,60.0,30.20,ESE,107,8.0,12.0,89,0.00,,,0.00,,2013-01-10 18:33:00,
2013-01-10 12:43:00,63.0,60.0,30.19,ESE,117,9.0,15.0,89,0.00,,,0.00,,2013-01-10 18:43:00,
2013-01-10 12:53:00,63.0,60.0,30.19,ESE,117,9.0,15.0,89,0.00,,,0.00,,2013-01-10 18:53:00,
2013-01-10 13:03:00,62.0,59.0,30.19,ESE,119,7.0,12.0,89,0.00,,,0.00,,2013-01-10 19:03:00,
2013-01-10 13:13:00,62.0,59.0,30.19,ESE,122,4.0,9.0,89,0.00,,,0.00,,2013-01-10 19:13:00,
2013-01-10 13:23:00,62.0,59.0,30.19,ESE,122,4.0,9.0,89,0.00,,,0.00,,2013-01-10 19:23:00,
2013-01-10 13:33:00,61.0,58.0,30.19,ESE,103,0.0,4.0,89,0.00,,,0.00,,2013-01-10 19:33:00,
2013-01-10 13:43:00,61.0,58.0,30.19,ESE,103,0.0,4.0,89,0.00,,,0.00,,2013-01-10 19:43:00,
2013-01-10 13:53:00,61.0,58.0,30.18,ESE,107,1.0,2.0,89,0.00,,,0.00,,2013-01-10 19:53:00,
2013-01-10 14:02:00,62.0,59.0,30.18,ESE,111,6.0,8.0,89,0.00,,,0.00,,2013-01-10 20:02:00,
2013-01-10 14:12:00,62.0,59.0,30.18,ESE,111,6.0,8.0,89,0.00,,,0.00,,2013-01-10 20:12:00,
2013-01-10 14:23:00,62.0,59.0,30.18,ESE,111,6.0,8.0,89,0.00,,,0.00,,2013-01-10 20:23:00,
2013-01-10 14:33:00,62.0,59.0,30.17,ESE,111,10.0,12.0,89,0.00,,,0.00,,2013-01-10 20:33:00,
2013-01-10 14:42:00,62.0,59.0,30.17,ESE,111,10.0,12.0,89,0.00,,,0.00,,2013-01-10 20:42:00,
2013-01-10 14:53:00,63.0,60.0,30.17,ESE,113,9.0,12.0,89,0.00,,,0.00,,2013-01-10 20:53:00,
2013-01-10 15:03:00,62.0,59.0,30.17,ESE,116,10.0,11.0,89,0.00,,,0.00,,2013-01-10 21:03:00,
2013-01-10 15:12:00,62.0,59.0,30.18,ESE,116,8.0,11.0,89,0.00,,,0.00,,2013-01-10 21:12:00,
2013-01-10 15:23:00,62.0,59.0,30.18,ESE,116,8.0,11.0,89,0.00,,,0.00,,2013-01-10 21:23:00,
2013-01-10 15:33:00,62.0,59.0,30.18,ESE,117,2.0,7.0,89,0.00,,,0.00,,2013-01-10 21:33:00,
2013-01-10 15:42:00,62.0,59.0,30.18,ESE,117,2.0,7.0,89,0.00,,,0.00,,2013-01-10 21:42:00,
2013-01-10 15:53:00,61.0,58.0,30.18,ESE,115,2.0,4.0,89,0.00,,,0.00,,2013-01-10 21:53:00,
2013-01-10 16:03:00,62.0,59.0,30.17,ESE,103,6.0,8.0,89,0.00,,,0.00,,2013-01-10 22:03:00,
2013-01-10 16:12:00,64.0,61.0,30.18,East,91,8.0,11.0,89,0.00,,,0.00,,2013-01-10 22:12:00,
2013-01-10 16:25:00,64.0,61.0,30.18,East,91,8.0,11.0,89,0.00,,,0.00,,2013-01-10 22:25:00,
2013-01-10 16:33:00,64.0,61.0,30.18,ESE,103,7.0,13.0,89,0.00,,,0.00,,2013-01-10 22:33:00,
2013-01-10 16:43:00,64.0,61.0,30.18,ESE,103,7.0,13.0,89,0.00,,,0.00,,2013-01-10 22:43:00,
2013-01-10 17:02:00,62.0,59.0,30.18,ESE,115,6.0,8.0,89,0.00,,,0.00,,2013-01-10 23:02:00,
2013-01-10 17:12:00,62.0,59.0,30.18,ESE,114,9.0,13.0,89,0.00,,,0.00,,2013-01-10 23:12:00,
2013-01-10 17:23:00,62.0,59.0,30.18,ESE,114,9.0,13.0,89,0.00,,,0.00,,2013-01-10 23:23:00,
2013-01-10 17:33:00,62.0,59.0,30.17,ESE,121,12.0,16.0,89,0.00,,,0.00,,2013-01-10 23:33:00,
2013-01-10 17:43:00,62.0,59.0,30.17,ESE,121,12.0,16.0,89,0.00,,,0.00,,2013-01-10 23:43:00,
2013-01-10 17:53:00,62.0,59.0,30.18,SE,126,10.0,14.0,89,0.00,,,0.00,,2013-01-10 23:53:00,
2013-01-10 18:02:00,62.0,59.0,30.16,ESE,108,5.0,10.0,89,0.00,,,0.00,,2013-01-11 00:02:00,
2013-01-10 18:12:00,62.0,59.0,30.16,ESE,108,5.0,10.0,89,0.00,,,0.00,,2013-01-11 00:12:00,
2013-01-10 18:23:00,62.0,59.0,30.15,ESE,115,11.0,15.0,89,0.00,,,0.00,,2013-01-11 00:23:00,
2013-01-10 18:33:00,62.0,59.0,30.15,ESE,115,12.0,14.0,89,0.00,,,0.00,,2013-01-11 00:33:00,
2013-01-10 18:42:00,62.0,59.0,30.15,ESE,115,12.0,14.0,89,0.00,,,0.00,,2013-01-11 00:42:00,
2013-01-10 18:53:00,62.0,59.0,30.15,SE,126,13.0,17.0,89,0.00,,,0.00,,2013-01-11 00:53:00,
2013-01-10 19:03:00,62.0,59.0,30.17,SE,142,10.0,12.0,89,0.02,,,0.02,,2013-01-11 01:03:00,
2013-01-10 19:12:00,63.0,60.0,30.16,South,181,17.0,25.0,89,0.09,,,0.09,,2013-01-11 01:12:00,
2013-01-10 19:23:00,63.0,60.0,30.16,South,181,17.0,25.0,89,0.09,,,0.09,,2013-01-11 01:23:00,
2013-01-10 19:33:00,62.0,59.0,30.17,South,191,8.0,18.0,89,0.17,,,0.17,,2013-01-11 01:33:00,
2013-01-10 19:43:00,62.0,59.0,30.17,South,191,8.0,18.0,89,0.17,,,0.17,,2013-01-11 01:43:00,
2013-01-10 19:53:00,61.0,58.0,30.19,South,182,6.0,12.0,89,0.23,,,0.23,,2013-01-11 01:53:00,
2013-01-10 20:02:00,62.0,58.0,30.19,South,180,10.0,13.0,88,0.22,,,0.24,,2013-01-11 02:02:00,
2013-01-10 20:13:00,62.0,58.0,30.19,South,180,10.0,13.0,88,0.22,,,0.24,,2013-01-11 02:13:00,
2013-01-10 20:23:00,62.0,58.0,30.19,SSE,167,10.0,13.0,88,0.15,,,0.24,,2013-01-11 02:23:00,
2013-01-10 20:33:00,61.0,57.0,30.19,South,178,7.0,11.0,88,0.08,,,0.25,,2013-01-11 02:33:00,
2013-01-10 20:43:00,61.0,57.0,30.19,South,178,7.0,11.0,88,0.08,,,0.25,,2013-01-11 02:43:00,
2013-01-10 20:54:00,61.0,57.0,30.20,SSE,165,8.0,10.0,88,0.02,,,0.25,,2013-01-11 02:54:00,
2013-01-10 21:02:00,61.0,57.0,30.19,SSE,149,8.0,10.0,88,0.02,,,0.26,,2013-01-11 03:02:00,
2013-01-10 21:12:00,61.0,57.0,30.19,SSE,149,8.0,10.0,88,0.02,,,0.26,,2013-01-11 03:12:00,
2013-01-10 21:23:00,61.0,57.0,30.19,SE,136,7.0,10.0,88,0.03,,,0.27,,2013-01-11 03:23:00,
2013-01-10 21:33:00,61.0,57.0,30.19,SE,141,11.0,14.0,88,0.02,,,0.27,,2013-01-11 03:33:00,
2013-01-10 21:43:00,61.0,57.0,30.19,SE,141,11.0,14.0,88,0.02,,,0.27,,2013-01-11 03:43:00,
2013-01-10 21:53:00,61.0,57.0,30.19,SE,133,12.0,16.0,88,0.03,,,0.28,,2013-01-11 03:53:00,
2013-01-10 22:02:00,60.0,56.0,30.19,SE,132,10.0,14.0,88,0.03,,,0.28,,2013-01-11 04:02:00,
2013-01-10 22:12:00,60.0,56.0,30.19,SE,132,10.0,14.0,88,0.03,,,0.28,,2013-01-11 04:12:00,
2013-01-10 22:22:00,61.0,57.0,30.18,ESE,116,12.0,13.0,88,0.04,,,0.31,,2013-01-11 04:22:00,
2013-01-10 22:33:00,62.0,58.0,30.16,East,93,12.0,17.0,88,0.04,,,0.31,,2013-01-11 04:33:00,
2013-01-10 22:42:00,62.0,58.0,30.16,East,93,12.0,17.0,88,0.04,,,0.31,,2013-01-11 04:42:00,
2013-01-10 22:53:00,62.0,58.0,30.14,East,89,10.0,18.0,88,0.03,,,0.31,,2013-01-11 04:53:00,
2013-01-10 23:03:00,63.0,59.0,30.14,East,101,16.0,19.0,88,0.02,,,0.31,,2013-01-11 05:03:00,
2013-01-10 23:12:00,63.0,59.0,30.14,East,101,16.0,19.0,88,0.02,,,0.31,,2013-01-11 05:12:00,
2013-01-10 23:22:00,63.0,59.0,30.14,East,98,13.0,21.0,88,0.00,,,0.31,,2013-01-11 05:22:00,
2013-01-10 23:33:00,63.0,59.0,30.14,East,80,9.0,17.0,88,0.00,,,0.31,,2013-01-11 05:33:00,
2013-01-10 23:42:00,63.0,59.0,30.14,East,80,9.0,17.0,88,0.00,,,0.31,,2013-01-11 05:42:00,
2013-01-10 23:53:00,63.0,59.0,30.12,East,82,9.0,14.0,88,0.00,,,0.31,,2013-01-11 05:53:00,